COSMOS 2142

导读 | 星芒AI

COSMOS 2142 是俄罗斯于1991年发射的一颗军用通信卫星,属于“天琴座”(Tselina)系列。该卫星主要用于电子侦察和信号情报收集,能够监测和拦截地面及海上通信信号。其具体任务细节未公开,但该系列卫星在冷战后期和后冷战时期对俄罗斯的军事情报能力起到了重要作用。COSMOS 2142 运行在近地轨道,最终因燃料耗尽而脱离轨道,进入大气层烧毁。该卫星体现了苏联/俄罗斯在空间侦察领域的技术实力。

基本信息
目录编号:
21230
目录名称:
COSMOS 2142
国际标识:
1991-029A
轨道中心:
EARTH
卫星名称:
COSMOS 2142
卫星全名:
--
卫星状态:
在轨 (已飞行12662 天)
发射日期:
1991-04-16 UTC
国别 :
俄罗斯(独联体) (CIS)
星等 :
--
轨道信息
数据来源 国际轨道数据
星历时间: 2025-12-14T15:59:46+0800
1天前
查看轨道信息
半长轴: 7365.669km
偏心率: 0.0037952
轨道倾角: 82.956°
近地点辐角 4.891°
升交点赤经 15.163°
平近点角 6.066°
近地点: 959.579km
远地点: 1015.489km
周期: 104.852分钟
每日圈数: 13.733603
详细信息
使用方式:
暂无
2D轨道图
3D轨道图
轨道高度分析图
轨道倾角分析图
轨道综合分析图
查看轨道综合分析图